When you browse on this site, cookies collect data to enhance your experience and personalize the content and advertising you see.
Visit our Privacy Policy to learn more. By continuing to use the site, you agree to this use of cookies and data.
  • In Latvia
  • List of Countries
  • For 7 days
  • Water Temperature
  • Weather Map
  • Weather Widgets
  • user-avatar
    Login

    Hourly Weather Perth

    Today, 26 January, Sunday

    Time Temperature Precipitation Wind Pressure Humidity
    00:00 +23°C° 0 mm 4 mps 759 mmHg 70%
    01:00 +22°C° 0 mm 4 mps 758 mmHg 70%
    02:00 +22°C° 0 mm 4 mps 758 mmHg 65%
    03:00 +22°C° 0 mm 4 mps 758 mmHg 70%
    04:00 +21°C° 0 mm 4 mps 758 mmHg 74%
    05:00 +20°C° 0 mm 4 mps 759 mmHg 79%
    06:00 +21°C° 0 mm 4 mps 759 mmHg 73%
    07:00 +24°C° 0 mm 3 mps 759 mmHg 68%
    08:00 +25°C° 0 mm 3 mps 759 mmHg 62%
    09:00 +28°C° 0 mm 3 mps 759 mmHg 53%
    10:00 +31°C° 0 mm 3 mps 759 mmHg 45%
    11:00 +35°C° 0 mm 3 mps 758 mmHg 36%
    12:00 +36°C° 0 mm 3 mps 758 mmHg 34%
    13:00 +37°C° 0 mm 4 mps 757 mmHg 33%
    14:00 +37°C° 0 mm 4 mps 757 mmHg 31%
    15:00 +36°C° 0 mm 5 mps 757 mmHg 34%
    16:00 +35°C° 0 mm 5 mps 756 mmHg 38%
    17:00 +34°C° 0 mm 6 mps 756 mmHg 41%
    18:00 +32°C° 0 mm 5 mps 756 mmHg 45%
    19:00 +30°C° 0 mm 5 mps 756 mmHg 48%
    20:00 +28°C° 0 mm 4 mps 757 mmHg 52%
    21:00 +27°C° 0 mm 4 mps 757 mmHg 50%
    22:00 +27°C° 0 mm 3 mps 757 mmHg 49%
    23:00 +27°C° 0 mm 3 mps 758 mmHg 47%

    Tomorrow, 27 January, Monday

    Time Temperature Precipitation Wind Pressure Humidity
    00:00 +27°C° 0 mm 3 mps 757 mmHg 50%
    01:00 +26°C° 0 mm 4 mps 757 mmHg 54%
    02:00 +26°C° 0 mm 5 mps 757 mmHg 57%
    03:00 +26°C° 0 mm 4 mps 757 mmHg 60%
    04:00 +25°C° 0 mm 4 mps 757 mmHg 63%
    05:00 +24°C° 0 mm 3 mps 757 mmHg 66%
    06:00 +26°C° 0 mm 3 mps 757 mmHg 61%
    07:00 +27°C° 0 mm 3 mps 757 mmHg 56%
    08:00 +28°C° 0 mm 3 mps 757 mmHg 51%
    09:00 +32°C° 0 mm 2 mps 757 mmHg 43%
    10:00 +36°C° 0 mm 2 mps 757 mmHg 35%
    11:00 +39°C° 0 mm 2 mps 756 mmHg 27%
    12:00 +39°C° 0 mm 3 mps 756 mmHg 28%
    13:00 +40°C° 0 mm 4 mps 755 mmHg 28%
    14:00 +40°C° 0 mm 6 mps 755 mmHg 29%
    15:00 +39°C° 0 mm 6 mps 754 mmHg 30%
    16:00 +38°C° 0 mm 6 mps 754 mmHg 31%
    17:00 +36°C° 0 mm 6 mps 754 mmHg 33%
    18:00 +34°C° 0 mm 5 mps 755 mmHg 37%
    19:00 +32°C° 0 mm 5 mps 755 mmHg 42%
    20:00 +29°C° 0 mm 4 mps 755 mmHg 47%
    21:00 +28°C° 0 mm 4 mps 756 mmHg 46%
    22:00 +28°C° 0 mm 3 mps 756 mmHg 46%
    23:00 +27°C° 0 mm 3 mps 756 mmHg 46%

    Day after tomorrow, 28 January, Tuesday

    Time Temperature Precipitation Wind Pressure Humidity
    00:00 +27°C° 0 mm 3 mps 756 mmHg 51%
    01:00 +26°C° 0 mm 3 mps 755 mmHg 55%
    02:00 +26°C° 0 mm 3 mps 755 mmHg 60%
    03:00 +25°C° 0 mm 2 mps 755 mmHg 64%
    04:00 +24°C° 0 mm 2 mps 755 mmHg 68%
    05:00 +23°C° 0 mm 1 mps 755 mmHg 73%
    06:00 +25°C° 0 mm 1 mps 755 mmHg 66%
    07:00 +27°C° 0 mm 1 mps 755 mmHg 58%
    08:00 +29°C° 0 mm 1 mps 755 mmHg 51%
    09:00 +30°C° 0 mm 2 mps 755 mmHg 46%
    10:00 +32°C° 0 mm 2 mps 755 mmHg 40%
    11:00 +35°C° 0 mm 3 mps 755 mmHg 34%
    12:00 +36°C° 0 mm 4 mps 754 mmHg 33%
    13:00 +36°C° 0 mm 4 mps 753 mmHg 33%
    14:00 +37°C° 0 mm 5 mps 753 mmHg 32%
    15:00 +35°C° 0 mm 5 mps 753 mmHg 36%
    16:00 +34°C° 0 mm 5 mps 753 mmHg 41%
    17:00 +32°C° 0 mm 6 mps 752 mmHg 45%
    18:00 +29°C° 0 mm 5 mps 753 mmHg 51%
    19:00 +27°C° 0 mm 5 mps 753 mmHg 57%
    20:00 +25°C° 0 mm 5 mps 754 mmHg 63%
    21:00 +23°C° 0 mm 5 mps 754 mmHg 66%
    22:00 +22°C° 0 mm 4 mps 754 mmHg 69%
    23:00 +21°C° 0 mm 4 mps 755 mmHg 72%

    29 January, Wednesday

    Time Temperature Precipitation Wind Pressure Humidity
    00:00 +21°C° 0 mm 3 mps 755 mmHg 74%
    01:00 +21°C° 0 mm 3 mps 755 mmHg 75%
    02:00 +20°C° 0 mm 2 mps 755 mmHg 76%
    03:00 +20°C° 0 mm 2 mps 754 mmHg 77%
    04:00 +20°C° 0 mm 2 mps 754 mmHg 79%
    05:00 +19°C° 0 mm 3 mps 754 mmHg 80%
    06:00 +20°C° 0 mm 3 mps 755 mmHg 74%
    07:00 +22°C° 0 mm 3 mps 755 mmHg 68%
    08:00 +24°C° 0 mm 3 mps 755 mmHg 63%
    09:00 +25°C° 0 mm 3 mps 755 mmHg 57%
    10:00 +27°C° 0 mm 4 mps 754 mmHg 51%
    11:00 +28°C° 0 mm 4 mps 754 mmHg 45%
    12:00 +29°C° 0 mm 4 mps 753 mmHg 44%
    13:00 +29°C° 0 mm 5 mps 753 mmHg 42%
    14:00 +29°C° 0 mm 5 mps 752 mmHg 41%
    15:00 +28°C° 0 mm 5 mps 752 mmHg 47%
    16:00 +27°C° 0 mm 5 mps 752 mmHg 53%
    17:00 +26°C° 0 mm 6 mps 752 mmHg 59%
    18:00 +25°C° 0 mm 5 mps 752 mmHg 65%
    19:00 +23°C° 0 mm 5 mps 753 mmHg 71%
    20:00 +22°C° 0 mm 4 mps 753 mmHg 76%
    21:00 +22°C° 0 mm 4 mps 753 mmHg 77%
    22:00 +22°C° 0 mm 4 mps 754 mmHg 78%
    23:00 +22°C° 0 mm 4 mps 754 mmHg 79%

    30 January, Thursday

    Time Temperature Precipitation Wind Pressure Humidity
    00:00 +21°C° 0 mm 4 mps 753 mmHg 79%
    01:00 +21°C° 0 mm 4 mps 753 mmHg 80%
    02:00 +20°C° 0 mm 4 mps 753 mmHg 80%
    03:00 +20°C° 0.1 mm 5 mps 753 mmHg 80%
    04:00 +19°C° 0.1 mm 5 mps 753 mmHg 80%
    05:00 +19°C° 0.1 mm 5 mps 753 mmHg 80%
    06:00 +19°C° 0 mm 5 mps 753 mmHg 75%
    07:00 +20°C° 0 mm 5 mps 754 mmHg 69%
    08:00 +20°C° 0 mm 4 mps 754 mmHg 64%
    09:00 +22°C° 0 mm 4 mps 754 mmHg 57%
    10:00 +23°C° 0 mm 4 mps 754 mmHg 51%
    11:00 +25°C° 0 mm 5 mps 754 mmHg 44%
    12:00 +25°C° 0 mm 5 mps 754 mmHg 45%
    13:00 +26°C° 0 mm 5 mps 754 mmHg 45%
    14:00 +26°C° 0 mm 6 mps 753 mmHg 46%
    15:00 +26°C° 0 mm 6 mps 753 mmHg 46%
    16:00 +24°C° 0 mm 6 mps 753 mmHg 47%
    17:00 +24°C° 0 mm 6 mps 753 mmHg 47%
    18:00 +23°C° 0 mm 6 mps 753 mmHg 48%
    19:00 +22°C° 0 mm 5 mps 754 mmHg 50%
    20:00 +21°C° 0 mm 4 mps 754 mmHg 51%
    21:00 +21°C° 0 mm 4 mps 755 mmHg 52%
    22:00 +20°C° 0 mm 4 mps 755 mmHg 52%
    23:00 +19°C° 0 mm 5 mps 756 mmHg 52%

    31 January, Friday

    Time Temperature Precipitation Wind Pressure Humidity
    00:00 +17°C° 0 mm 5 mps 755 mmHg 54%
    01:00 +17°C° 0 mm 5 mps 755 mmHg 55%
    02:00 +16°C° 0 mm 5 mps 755 mmHg 56%
    03:00 +15°C° 0 mm 5 mps 756 mmHg 57%
    04:00 +15°C° 0 mm 4 mps 756 mmHg 58%
    05:00 +14°C° 0 mm 4 mps 756 mmHg 59%
    06:00 +15°C° 0 mm 4 mps 757 mmHg 57%
    07:00 +17°C° 0 mm 4 mps 757 mmHg 54%
    08:00 +18°C° 0 mm 4 mps 758 mmHg 51%
    09:00 +20°C° 0 mm 4 mps 758 mmHg 45%
    10:00 +22°C° 0 mm 3 mps 758 mmHg 38%
    11:00 +25°C° 0 mm 3 mps 758 mmHg 32%
    12:00 +26°C° 0 mm 4 mps 757 mmHg 32%
    13:00 +26°C° 0 mm 5 mps 757 mmHg 32%
    14:00 +27°C° 0 mm 6 mps 756 mmHg 32%
    15:00 +26°C° 0 mm 7 mps 756 mmHg 35%
    16:00 +24°C° 0 mm 7 mps 756 mmHg 38%
    17:00 +23°C° 0 mm 8 mps 756 mmHg 42%
    18:00 +22°C° 0 mm 7 mps 757 mmHg 46%
    19:00 +21°C° 0 mm 7 mps 757 mmHg 51%
    20:00 +19°C° 0 mm 6 mps 758 mmHg 56%
    21:00 +19°C° 0 mm 6 mps 758 mmHg 53%
    22:00 +19°C° 0 mm 6 mps 759 mmHg 51%
    23:00 +17°C° 0 mm 6 mps 759 mmHg 48%
    Show more